Location: Brunnen
(48.6541°N, 10.9920°E)
Time: 18:42:51
(UTC+00:00)

STARLINK-1130 (DARKSAT) - Pass Details

Date: 01 June 2020
Orbit: 549 x 550 km, 53.0° (Epoch: 10 July)

Event Time Altitude Azimuth Distance (km) Brightness Sun altitude
Rises 21:04:38 0° 294° (WNW) 2,728 8.1 -13.5°
Reaches altitude 10° 21:06:56 10° 289° (WNW) 1,832 7.0 -13.7°
Maximum altitude 21:10:54 45° 216° (SW) 758 4.1 -14.0°
Enters shadow 21:12:58 25° 157° (SSE) 1,149 4.6 -14.2°
